Regional Weather Roundup
Issued by NWS Austin/San Antonio, TX

Home | Current Version | Previous Version | Text Only | Print | Product List | Glossary On
Versions: 1 2 3 4 5 6 7 8 9 10 11 12 13 14 15 16 17 18 19 20 21 22 23 24 25 26 27 28 29 30 31 32 33 34 35 36 37 38 39 40 41 42 43 44 45 46 47 48 49 50
000
ASUS44 KEWX 200110
RWREWX
SOUTH TEXAS REGIONAL WEATHER ROUNDUP
NATIONAL WEATHER SERVICE AUSTIN/SAN ANTONIO TX
800 PM CDT TUE SEP 19 2017

NOTE: "FAIR" INDICATED FEW OR NO CLOUDS BELOW 12,000 FEET WITH NO
SIGNIFICANT WEATHER AND/OR OBSTRUCTIONS TO VISIBILITY.

* - THESE STATIONS ARE NOT NWS OR FAA STATIONS...AND ARE NOT SUBJECT
    TO NWS AND FAA QUALITY CONTROL.

TXZ171-172-183>190-200200-
TEXAS HILL COUNTRY AND EDWARDS PLATEAU

CITY           SKY/WX    TMP DP  RH WIND       PRES   REMARKS
JUNCTION       CLEAR     76  70  82 CALM      29.85F
*LLANO         MOCLDY    75  72  88 CALM      29.87R
BURNET         LGT RAIN  85  70  60 SE6       29.86F
*HORSESHOE BAY MOCLDY    86  69  57 SE5       29.84S
*KERRVILLE     MOCLDY    85  69  57 S8        29.88R
*FREDERICKSBRG MOCLDY    85  64  48 S7        29.87R
*ROCKSPRINGS   NOT AVBL
*BOERNE STAGE  CLOUDY    84  68  58 SE12      29.88R
*CASTROVILLE   CLOUDY    88  67  48 SE14      29.83R HX  91
HONDO          MOCLDY    90  67  46 SE8       29.83R HX  93
*UVALDE        MOCLDY    79  71  76 S7        29.85R
DEL RIO        CLEAR     84  71  65 SE10      29.81R
LAUGHLIN AFB   PTCLDY    82  70  66 SE8       29.82R
CARRIZO SPRGS  CLOUDY    73  70  88 SE10G18   29.78F
*EAGLE PASS    CLEAR     81  68  65 E5        29.81R
$$

TXZ173-191>194-202-209-217>225-228-200200-
CENTRAL AND SOUTH CENTRAL TEXAS

CITY           SKY/WX    TMP DP  RH WIND       PRES   REMARKS
GEORGETOWN     PTCLDY    87  72  60 S9        29.85F HX  93
AUSTIN/BERGSTM MOCLDY    87  73  62 SE8       29.83F HX  94
AUSTIN/MABRY   PTCLDY    87  71  58 SE7       29.84F HX  93
*AUSTIN/EXEC   PTCLDY    84  72  65 SE6       29.84F
*LAGO VISTA    MOCLDY    84  72  67 SE6       29.86S HX  90
SAN MARCOS     CLOUDY    85  73  67 SE9       29.85S HX  91
NEW BRAUNFELS  CLOUDY    87  71  58 SE14      29.83S HX  93
RANDOLPH AFB   CLOUDY    86  72  62 SE15      29.84S HX  92
PT SAN ANTONIO LGT RAIN  88  73  60 SE13      29.82S HX  95
SAN ANTONIO    CLOUDY    88  70  55 SE15      29.84S HX  93
STINSON FIELD  CLOUDY    89  72  56 SE14      29.80F HX  96
*LA GRANGE     PTCLDY    86  75  68 S6        29.84R HX  95
*GIDDINGS      PTCLDY    83  72  69 S3        29.86S
*GONZALES      PTCLDY    85  76  72 SE6       29.84S HX  94
$$

TXZ163>164-176>182-195>201-210>213-226-227-235-200200-
SOUTHEAST TEXAS

CITY           SKY/WX    TMP DP  RH WIND       PRES   REMARKS
COLLEGE STN    PTCLDY    85  74  69 SE8       29.84S HX  92
*BRYAN         PTCLDY    83  73  71 SE5       29.86S
*CALDWELL      PTCLDY    83  73  72 S5        29.85S
*CROCKETT      CLOUDY    82  75  78 SE6       29.89R
*BRENHAM       PTCLDY    86  73  65 S6        29.86S HX  92
HUNTSVILLE     CLOUDY    85  75  72 VRB3      29.86S HX  93
CONROE         PTCLDY    82  75  79 SE9       29.87R
HOUSTON BUSH   MOCLDY    84  73  69 S9        29.87R HX  90
HOUSTON HOBBY  PTCLDY    84  74  71 S7        29.88R HX  91
*HOUSTON SW AP PTCLDY    80  75  86 S3        29.89R
PEARLAND       PTCLDY    85  74  69 S7        29.90R HX  92
HOUSTON HOOKS  PTCLDY    85  74  69 S6        29.87R HX  92
ELLINGTON FLD  MOCLDY    84  73  70 S7        29.90R HX  91
SUGAR LAND     PTCLDY    84  75  74 S12       29.87R HX  92
*HOUSTON EXEC  PTCLDY    82  73  74 S9        29.88R
*CLEVELAND MUN PTCLDY    80  74  83 S6        29.89R
*WHARTON       PTCLDY    79  73  81 SE7       29.88S
*COLUMBUS      FAIR      83  71  67 S9        29.88R
*EAGLE LAKE    PTCLDY    83  75  75 S8        29.87R HX  90
$$

TXZ214>216-236>238-200200-
THE UPPER TEXAS COAST

CITY           SKY/WX    TMP DP  RH WIND       PRES   REMARKS
*ORANGE        MOCLDY    82  77  85 S8        29.91R
PORT ARTHUR    MOCLDY    80  75  84 S7        29.88S
GALVESTON      PTCLDY    84  77  79 SE12      29.90R HX  94
ANGLETON       PTCLDY    80  75  84 S6        29.89R
*BAY CITY      PTCLDY    81  76  85 SE5       29.88S
PALACIOS       PTCLDY    80  75  84 SE7       29.88R
$$

TXZ229>234-239>247-200200-
TEXAS COASTAL BEND AND RIO GRANDE PLAINS

CITY           SKY/WX    TMP DP  RH WIND       PRES   REMARKS
VICTORIA       PTCLDY    82  73  74 SE9       29.88R
*BEEVILLE      PTCLDY    83  68  59 SE8       29.87R
ROCKPORT       MOCLDY    83  76  79 SE10      29.86R HX  91
*PORT ARANSAS  NOT AVBL
*PORT LAVACA   PTCLDY    81  74  80 SE7       29.87R
*INGLESIDE     NOT AVBL
CORPUS CHRISTI MOCLDY    83  76  79 SE16      29.85R HX  91
CORPUS NAS     MOCLDY    84  77  79 SE15      29.85R HX  94
*ROBSTOWN      MOCLDY    84  75  73 SE15      29.86R HX  92
ALICE          CLOUDY    85  72  65 SE14      29.84R HX  91
KINGSVILLE NAS MOCLDY    85  78  80 SE13      29.85R HX  96
COTULLA        TSTM      84  67  56 VRB7      29.83R
*FAITH RANCH   CLEAR     81  66  61 E9G16     29.80F
LAREDO         CLOUDY    95  67  39 SE8       29.80R HX  99
$$

TXZ248>255-200200-
DEEP SOUTH TEXAS

CITY           SKY/WX    TMP DP  RH WIND       PRES   REMARKS
BROWNSVILLE    CLEAR     83  78  85 SE12      29.84R HX  93
PORT ISABEL    PTCLDY    85  77  77 SE16      29.83R HX  95
*SOUTH PADRE   NOT AVBL
HARLINGEN      CLEAR     85  76  74 SE17      29.82R HX  94
*HEBBRONVILLE  CLEAR     90  69  49 SE13G20   29.84R HX  94
MCALLEN        CLEAR     90  72  55 SE17      29.81R HX  97
*WESLACO       CLEAR     87  73  62 SE14      29.81R HX  94
FALFURRIAS     CLOUDY   -38  32 100 E12       29.83R WCI -65
EDINBURG       CLEAR     90  72  55 SE13G20   29.82R HX  96
*ZAPATA        CLEAR     94  64  36 SE8       29.79R HX  96
$$

TXZ213>215-236>238-242>244-246-247-251-254-255-200200-
CMAN STATIONS

STATION/POSITION TIME  TEMP    WIND        PRES    WAVE
                       AIR SEA DIR/SP/G            HT/PER
                 (UTC) (F)     (DEG/KT/KT) (MB)    (FT/S)
SABINE PASS      0048   82 85  160/  8/ 11 1013.7
SEA RIM ST PARK  0000   83     150/ 10/ 12 1012.5
NORTH JETTY/GLS  0048          160/ 12/ 14   N/A
EAGLE POINT      0048          170/ 13/ 16   N/A
MORGANS POINT    0048   83 83  150/  7/ 11 1011.9
PORT O`CONNOR    0048   83 86  140/ 12/ 13 1011.2
MALAQUITE BEACH  0048   84 86  130/ 16/ 18 1010.3
BAFFIN BAY       0048   83 88  130/ 15/ 19 1010.5
PORT ISABEL      0048   84 86  140/ 13/ 16 1010.4
$$




USA.gov is the U.S. government's official web portal to all federal, state and local government web resources and services.